[vc_row][vc_column width=”2/3″]

Nesenie raksti

Ziņas

[/vc_column][vc_column width=”1/3″ el_class=”sticky-column”]

Par Gliding.lv

[vc_column_text]Gliding.lv ir interneta vietne par planieriem un planierismu. Šeit būs atrodama informācija par iespējām pamēģināt, iesaistīties un organizēt planierisma aktivitātes. Izmanto Gliding.lv forumu, ja Tev ir kāda tēma diskusijai vai jautājums. Gliding.lv merķis ir informēt un apvienot planierisma interesentus, nodrošinot un apmainoties ar aktuālāko un arī bijušo. Lidojam![/vc_column_text][vc_column_text]
[/vc_column_text]

METAR

EVRA 181150Z 35010KT CAVOK 12/M00 Q1026 NOSIG

EVLA 181120Z AUTO 28010KT 250V320 9999 FEW019/// 11/05 Q1028

EVVA 181120Z AUTO 26010KT CAVOK 11/05 Q1027

Nesenie raksti

[/vc_column][/vc_row]

Pāriet uz rīkjoslu